FW4226 Weather Reports


Display with metric or nautical units.
time (UTC)temp
F
wind
direction
speed
MPH
gust
MPH
rain 1hr
in
rain 24hr
in
rain mn
in
humidity
%
barometer
mb
20260505171007 57 329 0.0 2.0 0.00 0.00 0.00 74 1012.5
20260505170501 57 22 1.0 3.0 0.00 0.00 0.00 73 1012.6
20260505170006 57 306 0.0 3.0 0.00 0.00 0.00 74 1012.6
20260505165500 57 356 0.0 2.0 0.00 0.00 0.00 74 1012.7
20260505165000 57 342 1.0 2.0 0.00 0.00 0.00 74 1012.6
20260505163500 57 30 0.0 3.0 0.00 0.00 0.00 73 1012.8
20260505163000 57 22 0.0 3.0 0.00 0.00 0.00 73 1012.7
20260505162500 57 27 0.0 2.0 0.00 0.00 0.00 72 1012.6
20260505162000 57 15 0.0 1.0 0.00 0.00 0.00 73 1012.6
20260505161459 57 36 0.0 1.0 0.00 0.00 0.00 73 1012.6
20260505161000 57 36 0.0 3.0 0.00 0.00 0.00 73 1012.6
20260505160500 57 12 0.0 3.0 0.00 0.00 0.00 73 1012.6
20260505153000 58 353 1.0 3.0 0.00 0.00 0.00 71 1012.7
20260505152500 58 48 1.0 3.0 0.00 0.00 0.00 71 1012.7
20260505152000 58 339 1.0 3.0 0.00 0.00 0.00 71 1012.7
20260505151000 58 29 2.0 7.0 0.00 0.00 0.00 72 1012.7
20260505150459 58 347 1.0 7.0 0.00 0.00 0.00 73 1012.8
20260505140500 59 313 1.0 6.0 0.00 0.00 0.00 72 1013.0
20260505124959 60 36 1.0 5.0 0.00 0.00 0.00 66 1013.1
20260505124459 60 322 1.0 5.0 0.00 0.00 0.00 68 1013.1
20260505124000 60 11 1.0 5.0 0.00 0.00 0.00 67 1013.1
20260505123459 60 288 1.0 6.0 0.00 0.00 0.00 68 1013.0
20260505123000 60 43 2.0 6.0 0.00 0.00 0.00 68 1013.1
20260505122459 60 306 1.0 6.0 0.00 0.00 0.00 69 1013.1
20260505121459 59 12 2.0 5.0 0.00 0.00 0.00 71 1013.2
20260505120959 59 289 2.0 5.0 0.00 0.00 0.00 71 1013.2
20260505120459 59 311 2.0 5.0 0.00 0.00 0.00 71 1013.1
20260505120006 59 7 2.0 6.0 0.00 0.00 0.00 71 1013.2
20260505115500 59 339 2.0 4.0 0.00 0.00 0.00 73 1013.3
20260505115000 59 17 2.0 5.0 0.00 0.00 0.00 71 1013.2
20260505114459 59 332 2.0 5.0 0.00 0.00 0.00 70 1013.2
20260505113959 59 332 1.0 5.0 0.00 0.00 0.00 72 1013.1
20260505113458 59 12 2.0 4.0 0.00 0.00 0.00 70 1013.2
20260505113000 59 6 1.0 5.0 0.00 0.00 0.00 70 1013.2
20260505112459 59 326 1.0 3.0 0.00 0.00 0.00 70 1013.3
20260505112000 59 322 1.0 3.0 0.00 0.00 0.00 71 1013.3
20260505111459 59 278 1.0 4.0 0.00 0.00 0.00 68 1013.3
20260505111000 58 69 1.0 4.0 0.00 0.00 0.00 68 1013.5
20260505110459 58 359 1.0 4.0 0.00 0.00 0.00 67 1013.4
20260505102000 59 301 1.0 4.0 0.00 0.00 0.00 74 1013.7
20260505101459 58 29 1.0 5.0 0.00 0.00 0.00 76 1013.6
20260505100959 57 333 2.0 5.0 0.00 0.00 0.00 74 1013.7
20260505100005 58 348 1.0 5.0 0.00 0.00 0.00 74 1013.7
20260505095500 57 297 1.0 8.0 0.00 0.00 0.00 76 1013.7
20260505094959 57 23 1.0 8.0 0.00 0.00 0.00 76 1013.8
20260505094500 56 38 1.0 5.0 0.00 0.00 0.00 76 1013.9
20260505094000 56 359 2.0 5.0 0.00 0.00 0.00 76 1013.9
20260505093500 56 23 2.0 8.0 0.00 0.00 0.00 77 1014.0
20260505093000 56 59 2.0 8.0 0.00 0.00 0.00 76 1014.0
20260505092459 56 73 1.0 4.0 0.00 0.00 0.00 78 1013.9
20260505092000 55 30 1.0 3.0 0.00 0.00 0.00 79 1014.0
20260505091458 55 52 1.0 3.0 0.00 0.00 0.00 81 1014.0
20260505090500 54 285 1.0 5.0 0.00 0.00 0.00 81 1014.0
20260505090004 54 19 2.0 4.0 0.00 0.00 0.00 82 1014.0
20260505085500 54 27 1.0 4.0 0.00 0.00 0.00 82 1014.1
20260505084959 54 29 1.0 4.0 0.00 0.00 0.00 81 1014.1
20260505084000 54 289 1.0 2.0 0.00 0.00 0.00 83 1014.2
20260505083458 53 359 1.0 2.0 0.00 0.00 0.00 84 1014.1
20260505083001 53 340 1.0 3.0 0.00 0.00 0.00 85 1014.2
20260505082459 53 2 1.0 3.0 0.00 0.00 0.00 84 1014.3
20260505082000 53 14 1.0 4.0 0.00 0.00 0.00 85 1014.3
20260505081500 53 16 2.0 4.0 0.00 0.00 0.00 85 1014.3
20260505080959 53 13 2.0 7.0 0.00 0.00 0.00 87 1014.2
20260505080459 52 40 2.0 4.0 0.00 0.00 0.00 88 1014.2
20260505074958 51 18 1.0 2.0 0.00 0.00 0.00 90 1014.2
20260505073958 50 40 2.0 5.0 0.00 0.00 0.00 91 1014.2
20260505073457 50 358 1.0 6.0 0.00 0.00 0.00 91 1014.2
20260505072958 50 26 0.0 3.0 0.00 0.00 0.00 92 1014.3
20260505071458 49 336 0.0 2.0 0.00 0.00 0.00 92 1014.3
20260505070958 49 336 0.0 2.0 0.00 0.00 0.00 93 1014.3
20260505070002 49 19 0.0 4.0 0.00 0.00 0.00 93 1014.3
20260505065458 49 23 0.0 4.0 0.00 0.00 0.00 93 1014.3
20260505064958 49 14 0.0 2.0 0.00 0.00 0.00 93 1014.2
20260505064459 49 38 0.0 2.0 0.00 0.00 0.00 94 1014.2
20260505063958 49 54 0.0 1.0 0.00 0.00 0.00 94 1014.3
20260505063457 49 54 0.0 1.0 0.00 0.00 0.00 94 1014.2
20260505062958 49 53 0.0 1.0 0.00 0.00 0.00 94 1014.2
20260505062458 49 348 0.0 0.0 0.00 0.00 0.00 94 1014.2
20260505061958 49 348 0.0 0.0 0.00 0.00 0.00 94 1014.3
20260505061458 48 348 0.0 1.0 0.00 0.00 0.00 95 1014.4
20260505060959 48 348 0.0 1.0 0.00 0.00 0.00 95 1014.3
20260505060458 48 349 0.0 1.0 0.00 0.00 0.00 95 1014.4
20260505060005 48 349 0.0 1.0 0.00 0.00 0.00 95 1014.3
20260505054958 47 349 0.0 0.0 0.00 0.00 0.00 95 1014.4
20260505052958 46 349 0.0 0.0 0.00 0.00 0.00 95 1014.4
20260505052459 46 349 0.0 0.0 0.00 0.00 0.00 95 1014.4
20260505051958 46 349 0.0 0.0 0.00 0.00 0.00 95 1014.3
20260505050958 46 349 0.0 0.0 0.00 0.00 0.00 95 1014.3
20260505050457 46 349 0.0 0.0 0.00 0.00 0.00 95 1014.3
20260505041458 44 1 0.0 2.0 0.00 0.00 0.00 95 1014.5
20260505040958 44 360 0.0 2.0 0.00 0.00 0.00 95 1014.5
20260505040458 43 334 0.0 0.0 0.00 0.00 0.00 94 1014.5
20260505040001 43 332 0.0 0.0 0.00 0.00 0.00 94 1014.4
20260505035458 43 332 0.0 0.0 0.00 0.00 0.00 94 1014.5
20260505034958 43 332 0.0 0.0 0.00 0.00 0.00 94 1014.4
20260505034458 43 332 0.0 0.0 0.00 0.00 0.00 94 1014.4
20260505033958 43 332 0.0 0.0 0.00 0.00 0.00 94 1014.5
20260505033458 43 332 0.0 0.0 0.00 0.00 0.00 95 1014.7
20260505032958 43 332 0.0 0.0 0.00 0.00 0.00 95 1014.6
20260505032458 42 332 0.0 0.0 0.00 0.00 0.00 94 1014.6
20260505031959 42 332 0.0 1.0 0.00 0.00 0.00 94 1014.5
20260505031457 42 332 0.0 1.0 0.00 0.00 0.00 94 1014.6
20260505030958 42 332 0.0 1.0 0.00 0.00 0.00 95 1014.7
20260505025457 42 332 0.0 0.0 0.00 0.00 0.00 94 1014.7
20260505024958 42 332 0.0 0.0 0.00 0.00 0.00 93 1014.7
20260505024458 42 333 0.0 0.0 0.00 0.00 0.00 94 1014.8
20260505022457 43 332 0.0 0.0 0.00 0.00 0.00 93 1014.8
20260505021458 43 333 0.0 1.0 0.00 0.00 0.00 93 1014.6
20260505021003 43 332 0.0 1.0 0.00 0.00 0.00 93 1014.5
20260505020458 44 332 0.0 0.0 0.00 0.00 0.00 94 1014.5
20260505020007 44 311 0.0 0.0 0.00 0.00 0.00 93 1014.7
20260505015458 44 311 0.0 0.0 0.00 0.00 0.00 93 1014.8
20260505015006 44 311 0.0 0.0 0.00 0.00 0.00 94 1014.9
20260505014457 44 311 0.0 0.0 0.00 0.00 0.00 94 1014.8
20260505014005 44 311 0.0 0.0 0.00 0.00 0.00 94 1015.0
20260505013457 43 291 0.0 0.0 0.00 0.00 0.00 93 1015.0
20260505013000 43 291 0.0 0.0 0.00 0.00 0.00 92 1015.2
20260505012457 44 291 0.0 0.0 0.00 0.00 0.00 92 1015.2
20260505011458 44 291 0.0 0.0 0.00 0.00 0.00 92 1015.1
20260505011006 44 291 0.0 0.0 0.00 0.00 0.00 92 1015.1
20260505010458 44 291 0.0 0.0 0.00 0.00 0.00 92 1015.1
20260505010009 45 291 0.0 0.0 0.00 0.00 0.00 91 1015.1
20260505005457 45 291 0.0 0.0 0.00 0.00 0.00 91 1015.1
20260505005005 46 291 0.0 0.0 0.00 0.00 0.00 91 1015.2
20260505004459 46 291 0.0 0.0 0.00 0.00 0.00 91 1015.2
20260505004004 46 291 0.0 0.0 0.00 0.00 0.00 91 1015.2
20260505003457 47 291 0.0 0.0 0.00 0.00 0.00 91 1015.2
20260505002959 47 291 0.0 0.0 0.00 0.00 0.00 91 1015.2
20260505002458 47 291 0.0 0.0 0.00 0.00 0.00 91 1015.3
20260505002006 48 291 0.0 0.0 0.00 0.00 0.00 90 1015.4
20260505001004 48 291 0.0 0.0 0.00 0.00 0.00 90 1015.2
20260505000458 49 291 0.0 0.0 0.00 0.00 0.00 90 1015.3
20260505000007 49 291 0.0 0.0 0.00 0.00 0.00 89 1015.4
20260504235457 49 291 0.0 0.0 0.00 0.00 0.00 89 1015.5
20260504235002 50 291 0.0 0.0 0.00 0.00 0.00 88 1015.6
20260504234502 50 291 0.0 0.0 0.00 0.00 0.00 88 1015.5
20260504234005 51 291 0.0 1.0 0.00 0.00 0.00 87 1015.6
20260504233502 51 291 0.0 1.0 0.00 0.00 0.00 87 1015.5
20260504233002 51 291 0.0 1.0 0.00 0.00 0.00 87 1015.5
20260504232502 52 291 0.0 1.0 0.00 0.00 0.00 87 1015.5
20260504232002 52 291 0.0 1.0 0.00 0.00 0.00 87 1015.5
20260504231002 52 291 0.0 2.0 0.00 0.00 0.00 87 1015.3
20260504230502 52 294 0.0 2.0 0.00 0.00 0.00 87 1015.5
20260504230007 52 348 0.0 2.0 0.00 0.00 0.00 86 1015.4
20260504225002 52 350 0.0 1.0 0.00 0.00 0.00 86 1015.6
20260504224502 52 351 0.0 1.0 0.00 0.00 0.00 86 1015.7
20260504224002 52 349 0.0 2.0 0.00 0.00 0.00 86 1015.6
20260504223502 52 317 0.0 1.0 0.00 0.00 0.00 86 1015.6
20260504223003 52 304 0.0 1.0 0.00 0.00 0.00 86 1015.6
20260504222501 52 300 0.0 1.0 0.00 0.00 0.00 86 1015.7
20260504222002 53 299 0.0 1.0 0.00 0.00 0.00 86 1015.7
20260504221502 53 295 0.0 1.0 0.00 0.00 0.00 86 1015.6
20260504221002 53 311 0.0 1.0 0.00 0.00 0.00 86 1015.7
20260504220501 53 307 0.0 3.0 0.00 0.00 0.00 86 1015.7
20260504220006 53 27 0.0 3.0 0.00 0.00 0.00 86 1015.7
20260504215502 53 6 0.0 2.0 0.00 0.02 0.00 86 1015.7
20260504214501 53 347 1.0 4.0 0.00 0.02 0.00 86 1015.8
20260504214001 53 339 1.0 4.0 0.00 0.02 0.00 86 1015.8
20260504213500 53 14 0.0 3.0 0.00 0.02 0.00 86 1015.7
20260504212500 53 24 1.0 2.0 0.00 0.02 0.00 86 1015.8
20260504212001 53 325 1.0 3.0 0.00 0.02 0.00 86 1015.8
20260504211500 53 337 0.0 3.0 0.00 0.02 0.00 85 1015.8
20260504211001 54 306 1.0 5.0 0.00 0.02 0.00 85 1015.7
20260504210501 54 15 1.0 5.0 0.00 0.02 0.00 85 1015.7
20260504210006 54 294 0.0 2.0 0.00 0.02 0.00 85 1015.8
20260504205500 54 7 0.0 4.0 0.00 0.03 0.00 85 1015.8
20260504205001 54 12 1.0 4.0 0.00 0.03 0.00 85 1015.8
20260504204501 54 27 1.0 4.0 0.00 0.03 0.00 85 1015.9
20260504204000 54 352 0.0 2.0 0.00 0.03 0.00 85 1015.9
20260504203500 54 357 0.0 2.0 0.00 0.03 0.00 85 1015.8
20260504203001 54 359 0.0 3.0 0.00 0.03 0.00 85 1015.9
20260504202500 54 32 0.0 3.0 0.00 0.03 0.00 85 1015.8
20260504202001 54 46 0.0 1.0 0.00 0.03 0.00 85 1015.9
20260504201501 54 48 0.0 1.0 0.00 0.03 0.00 85 1015.8
20260504200500 54 48 0.0 2.0 0.00 0.03 0.00 85 1015.7
20260504200004 54 48 0.0 2.0 0.00 0.03 0.00 85 1015.6
20260504195500 54 3 0.0 1.0 0.00 0.03 0.00 85 1015.7
20260504195001 54 3 0.0 2.0 0.00 0.03 0.00 85 1015.6
20260504194500 54 3 0.0 2.0 0.00 0.03 0.00 85 1015.6
20260504194000 54 3 0.0 2.0 0.00 0.03 0.00 84 1015.5
20260504193501 54 3 1.0 2.0 0.00 0.03 0.00 84 1015.5
20260504193001 55 332 1.0 2.0 0.00 0.03 0.00 84 1015.4
20260504192001 55 338 0.0 1.0 0.00 0.03 0.00 84 1015.3
20260504191502 55 330 0.0 1.0 0.00 0.03 0.00 84 1015.4
20260504191000 55 330 0.0 1.0 0.00 0.03 0.00 84 1015.3
20260504190501 55 287 0.0 3.0 0.00 0.03 0.00 84 1015.4
20260504190004 55 26 0.0 3.0 0.00 0.03 0.00 84 1015.3
20260504185501 56 10 0.0 1.0 0.00 0.03 0.00 84 1015.3
20260504185000 56 10 0.0 1.0 0.00 0.03 0.00 84 1015.3
20260504184501 56 11 0.0 2.0 0.00 0.03 0.00 83 1015.3
20260504184000 56 99 0.0 1.0 0.00 0.03 0.00 83 1015.2
20260504183500 56 99 0.0 2.0 0.00 0.03 0.00 83 1015.3
20260504183001 56 99 0.0 2.0 0.00 0.03 0.00 83 1015.2
20260504182500 56 75 0.0 2.0 0.00 0.03 0.00 83 1015.2
20260504182001 56 25 0.0 2.0 0.00 0.03 0.00 82 1015.1
20260504181500 56 46 0.0 3.0 0.00 0.03 0.00 82 1015.0
20260504180501 56 70 0.0 1.0 0.00 0.03 0.00 82 1015.0
20260504180005 56 18 1.0 4.0 0.00 0.03 0.00 83 1015.1
20260504175500 56 18 2.0 4.0 0.00 0.03 0.00 82 1015.0
20260504175001 56 17 1.0 3.0 0.00 0.03 0.00 82 1015.1
20260504174501 56 55 1.0 3.0 0.00 0.03 0.00 82 1015.0
20260504174001 56 358 1.0 6.0 0.00 0.03 0.00 82 1015.1
20260504173500 57 351 1.0 6.0 0.00 0.03 0.00 82 1015.0
20260504173001 57 331 2.0 6.0 0.00 0.03 0.00 82 1015.0
20260504172500 57 25 1.0 5.0 0.00 0.03 0.00 82 1015.0
20260504171500 57 228 1.0 6.0 0.00 0.03 0.00 82 1015.1